User: anonymous   Login
Location: Long Geng
(2.6167°N, 114.1333°E)
Time: 05:26:11
(UTC+00:00)
Language:

Cosmos 1743 Rocket - Orbit

View from above orbital plane
View from above orbital plane
View from above satellite
View from above satellite

Ground track
Ground track

The orbit data is extracted from the following two-line orbital elements,

1 16720U 86034B   21210.71612616  .00000086  00000-0  75231-5 0  9990
2 16720  82.5540 279.5829 0020232 176.4824 302.9440 14.83442370902150
Epoch (UTC): 29 July 2021 17:11:13
Eccentricity: 0.0020232
inclination: 82.5540°
perigee height: 604 km
apogee height: 632 km
right ascension of ascending node: 279.5829°
argument of perigee: 176.4824°
revolutions per day: 14.83442370
mean anomaly at epoch: 302.9440°
orbit number at epoch: 90215

The dashed part of the orbit path shows where the satellite is in the earth's shadow,  

DLR